Weather History for Marion Regional, IL

Change the Weather History Date:

Tuesday, December 4, 2012

  Actual Average Record
Temperature  
Mean Temperature 54 °F -  
Max Temperature 66 °F 47 °F 71 °F (2001)
Min Temperature 39 °F 28 °F 11 °F (1991)
Degree Days  
Heating Degree Days 12    
Growing Degree Days 4 (Base 50)    
Moisture  
Dew Point 50 °F    
Average Humidity 82    
Maximum Humidity 100    
Minimum Humidity 68    
Precipitation  
Precipitation 0.00 in - - ()
Sea Level Pressure  
Sea Level Pressure 30.14 in    
Wind  
Wind Speed 12 mph (West)    
Max Wind Speed 18 mph    
Max Gust Speed 25 mph    
Visibility 10 miles    
Events Rain    
Averages and records for this station are not official NWS values.
T = Trace of Precipitation, MM = Missing Value Source: NWS Daily Summary

Daily Weather History Graph

Daily Weather History Graph

Search for Another Location

Airport:

Trip Planner

Search our weather history database for the weather conditions in past years. The results will help you decide how hot, cold, wet, or windy it might be!

Date:

Astronomy

Dec. 04, 2012 Rise Set
Actual Time 6:55 AM CST 4:37 PM CST
Civil Twilight 6:26 AM CST 5:06 PM CST
Nautical Twilight 5:54 AM CST 5:38 PM CST
Astronomical Twilight 5:22 AM CST 6:10 PM CST
Moon 10:20 PM CST (12/4) 10:53 AM CST (12/4)
Length of Visible Light 10h 39m
Length of Day
9h 41m
Waning Gibbous, 69% of the Moon is Illuminated
Dec 4
Waning Gibbous
Dec 6
Last Quarter
Dec 13
New
Dec 19
First Quarter
Dec 28
Full

Hourly Weather History & Observations

Time (CST) Temp. Windchill Dew Point Humidity Pressure Visibility Wind Dir Wind Speed Gust Speed Precip Events Conditions
12:15 AM 64.4 °F - 53.6 °F 68% 30.03 in 10.0 mi SSW 17.3 mph 20.7 mph N/A   Overcast
12:35 AM 64.4 °F - 53.6 °F 68% 30.03 in 10.0 mi South 16.1 mph 20.7 mph N/A   Overcast
12:55 AM 64.4 °F - 53.6 °F 68% 30.02 in 10.0 mi South 13.8 mph 21.9 mph N/A   Mostly Cloudy
1:15 AM 64.4 °F - 55.4 °F 73% 30.02 in 10.0 mi South 16.1 mph - N/A   Scattered Clouds
1:35 AM 64.4 °F - 55.4 °F 73% 30.02 in 10.0 mi South 17.3 mph 21.9 mph N/A   Scattered Clouds
1:55 AM 64.4 °F - 55.4 °F 73% 30.02 in 10.0 mi South 17.3 mph 23.0 mph N/A   Mostly Cloudy
2:15 AM 64.4 °F - 55.4 °F 73% 30.03 in 10.0 mi South 18.4 mph 23.0 mph N/A   Overcast
2:35 AM 64.4 °F - 55.4 °F 73% 30.02 in 10.0 mi South 18.4 mph 24.2 mph N/A   Mostly Cloudy
2:55 AM 64.4 °F - 55.4 °F 73% 30.02 in 10.0 mi South 18.4 mph 25.3 mph N/A   Scattered Clouds
3:15 AM 64.4 °F - 55.4 °F 73% 30.01 in 10.0 mi South 16.1 mph 21.9 mph N/A   Clear
3:35 AM 62.6 °F - 55.4 °F 77% 30.02 in 10.0 mi SSW 13.8 mph - N/A   Scattered Clouds
3:55 AM 62.6 °F - 55.4 °F 77% 30.02 in 10.0 mi SSW 15.0 mph 20.7 mph N/A   Mostly Cloudy
4:15 AM 64.4 °F - 57.2 °F 77% 30.02 in 10.0 mi South 13.8 mph 20.7 mph N/A   Overcast
4:35 AM 64.4 °F - 57.2 °F 77% 30.02 in 10.0 mi South 15.0 mph - N/A   Overcast
4:55 AM 64.4 °F - 57.2 °F 77% 30.01 in 10.0 mi SSW 13.8 mph 19.6 mph N/A   Overcast
5:15 AM 64.4 °F - 59.0 °F 83% 30.01 in 10.0 mi SSW 13.8 mph 18.4 mph N/A   Mostly Cloudy
5:35 AM 64.4 °F - 59.0 °F 83% 30.03 in 10.0 mi SSW 9.2 mph - N/A   Mostly Cloudy
6:55 AM 66.2 °F - 60.8 °F 83% 30.04 in 20.0 mi SSW 9.2 mph - N/A   Overcast
7:55 AM 62.6 °F - 60.8 °F 94% 30.07 in 5.0 mi West 6.9 mph - N/A Rain Light Rain
8:55 AM 62.6 °F - 60.8 °F 94% 30.09 in 7.0 mi WNW 6.9 mph - N/A Rain Light Rain
9:55 AM 57.2 °F - 55.4 °F 94% 30.12 in 5.0 mi NNW 10.4 mph - N/A Rain Light Rain
10:55 AM 55.4 °F - 55.4 °F 100% 30.12 in 5.0 mi North 13.8 mph - N/A Rain Rain
11:55 AM 53.6 °F - 53.6 °F 100% 30.13 in 10.0 mi NNW 11.5 mph - N/A   Overcast
12:54 PM 55.4 °F - 53.6 °F 94% 30.09 in 7.0 mi NE 5.8 mph - N/A Rain Light Rain
1:54 PM 55.4 °F - 53.6 °F 94% 30.16 in 10.0 mi WNW 9.2 mph - N/A   Overcast
2:53 PM 53.6 °F - 51.8 °F 94% 30.16 in 12.0 mi NW 11.5 mph - N/A   Overcast
3:53 PM 55.4 °F - 51.8 °F 88% 30.20 in 15.0 mi NNW 9.2 mph - N/A   Overcast
4:54 PM 53.6 °F - 50.0 °F 88% 30.21 in 20.0 mi NNW 6.9 mph - N/A   Mostly Cloudy
5:55 PM 53.6 °F - 46.4 °F 77% 30.24 in 20.0 mi NNW 5.8 mph - N/A   Scattered Clouds
6:55 PM 50.0 °F - 44.6 °F 82% 30.25 in 10.0 mi North 3.5 mph - N/A   Unknown
7:15 PM 50.0 °F - 44.6 °F 82% 30.26 in 10.0 mi North 3.5 mph - N/A   Clear
7:35 PM 50.0 °F - 42.8 °F 76% 30.26 in 10.0 mi NNW 4.6 mph - N/A   Clear
7:55 PM 50.0 °F - 42.8 °F 76% 30.27 in 10.0 mi NNW 4.6 mph - N/A   Clear
8:15 PM 50.0 °F - 42.8 °F 76% 30.27 in 10.0 mi NNW 3.5 mph - N/A   Clear
8:35 PM 50.0 °F - 42.8 °F 76% 30.28 in 10.0 mi NNW 3.5 mph - N/A   Clear
8:55 PM 46.4 °F 45.2 °F 41.0 °F 81% 30.28 in 10.0 mi North 3.5 mph - N/A   Clear
9:15 PM 44.6 °F 41.4 °F 41.0 °F 87% 30.27 in 10.0 mi North 5.8 mph - N/A   Clear
9:35 PM 46.4 °F 44.3 °F 41.0 °F 81% 30.28 in 10.0 mi NNW 4.6 mph - N/A   Clear
9:55 PM 46.4 °F 45.2 °F 41.0 °F 81% 30.29 in 10.0 mi NNW 3.5 mph - N/A   Clear
10:15 PM 44.6 °F - 41.0 °F 87% 30.30 in 10.0 mi Calm Calm - N/A   Clear
10:35 PM 42.8 °F - 41.0 °F 93% 30.30 in 10.0 mi Calm Calm - N/A   Clear
10:55 PM 41.0 °F - 37.4 °F 87% 30.30 in 7.0 mi Calm Calm - N/A   Clear
11:15 PM 41.0 °F - 39.2 °F 93% 30.31 in 10.0 mi Calm Calm - N/A   Clear
11:35 PM 41.0 °F 39.0 °F 39.2 °F 93% 30.31 in 10.0 mi NW 3.5 mph - N/A   Clear
11:55 PM 39.2 °F - 37.4 °F 93% 30.31 in 10.0 mi Calm Calm - N/A   Clear